Simultaneous Nadir Overpasses (SNOs) Predictions

Prediction of SNOs between NPP and GCOM-C Satellite Orbit:

Table of predicted SNOs for the next 14.0 days since TLE Epoch: 1/20/2024
Index Date (NPP) Time (NPP) Lat,Lon (NPP) SZA (NPP ) Date (GCOM-C) Time (GCOM-C) Lat,Lon (GCOM-C) SZA (GCOM-C ) Distance(km) Time Diff (sec)
1 01/24/2024 02:31:50 -69.61, -40.87 91.05 01/24/2024 02:32:57 -69.60, -38.45 91.14 93.57 67
2 01/24/2024 03:22:25 69.02, 127.28 88.33 01/24/2024 03:23:36 68.95, 128.04 88.23 31.53 71
3 01/24/2024 04:13:02 -68.66, -64.91 92.06 01/24/2024 04:14:11 -68.68, -64.94 92.05 2.33 69
4 01/24/2024 05:03:48 68.65, 102.40 87.93 01/24/2024 05:04:38 68.68, 102.44 87.95 2.81 50
5 01/24/2024 05:54:31 -68.61, -90.22 92.12 01/24/2024 05:55:09 -68.62, -90.25 92.12 1.63 38
6 01/24/2024 06:45:17 68.61, 77.10 87.87 01/24/2024 06:45:36 68.62, 77.13 87.87 1.92 19
7 01/24/2024 07:36:00 -68.56,-115.53 92.19 01/24/2024 07:36:07 -68.56,-115.57 92.19 1.34 7
8 01/24/2024 08:26:46 68.56, 51.79 87.80 01/24/2024 08:26:34 68.56, 51.82 87.80 1.29 12
9 01/24/2024 09:17:29 -68.52,-140.84 92.26 01/24/2024 09:17:05 -68.51,-140.88 92.26 1.71 24
10 01/24/2024 10:08:15 68.51, 26.47 87.73 01/24/2024 10:07:32 68.50, 26.50 87.73 1.33 43
11 01/24/2024 10:58:58 -68.47,-166.15 92.33 01/24/2024 10:58:03 -68.45,-166.19 92.34 2.44 55
12 01/24/2024 11:49:44 68.46, 1.16 87.66 01/24/2024 11:48:30 68.44, 1.19 87.66 2.01 74
13 01/24/2024 12:40:18 -67.99, 169.08 92.84 01/24/2024 12:39:07 -68.01, 168.03 92.77 44.15 71



Historial Predications of SNOs between NPP and GCOM-C
